Location: *
(44.3925°N, 5.4708°E)
Time: 01:28:27
(UTC+00:00)

Cosmos 1892 Rocket - Pass Details

Date: 18 September 2019
Orbit: 606 x 634 km, 82.5° (Epoch: 13 October)

Event Time Altitude Azimuth Distance (km) Brightness Sun altitude
Rises 19:30:13 0° 351° (N) 2,930 7.5 -19.3°
Reaches altitude 10° 19:32:28 10° 352° (N) 2,014 6.6 -19.7°
Maximum altitude 19:36:56 86° 81° (E) 632 3.4 -20.4°
Enters shadow 19:38:38 38° 168° (SSE) 958 4.2 -20.7°
